| time (UTC) | temp C | wind direction | speed KPH | gust KPH | rain 1hr cm | rain 24hr cm | rain mn cm | humidity % | barometer mb |
| 20260509214542 | 2 | 81 | 0.0 | 1.6 | 0.00 | 0.00 | 0.00 | 96 | 1022.8 |
| 20260509213040 | 2 | 81 | 0.0 | 1.6 | 0.00 | 0.00 | 0.00 | 96 | 1022.8 |
| 20260509211540 | 2 | 81 | 1.6 | 4.8 | 0.00 | 0.00 | 0.00 | 95 | 1023.0 |
| 20260509210048 | 2 | 81 | 1.6 | 4.8 | 0.00 | 0.00 | 0.00 | 93 | 1023.1 |
| 20260509204532 | 3 | 81 | 1.6 | 3.2 | 0.00 | 0.00 | 0.00 | 92 | 1023.0 |
| 20260509203034 | 4 | 81 | 0.0 | 0.0 | 0.00 | 0.00 | 0.00 | 90 | 1023.2 |
| 20260509201531 | 5 | 81 | 0.0 | 0.0 | 0.00 | 0.00 | 0.00 | 88 | 1023.3 |
| 20260509200032 | 6 | 81 | 0.0 | 0.0 | 0.00 | 0.00 | 0.00 | 86 | 1023.5 |
| 20260509194532 | 6 | 81 | 0.0 | 1.6 | 0.00 | 0.00 | 0.00 | 84 | 1023.5 |
| 20260509193028 | 7 | 81 | 0.0 | 3.2 | 0.00 | 0.00 | 0.00 | 83 | 1023.6 |
| 20260509191529 | 7 | 81 | 1.6 | 4.8 | 0.00 | 0.00 | 0.00 | 82 | 1023.5 |
| 20260509190035 | 7 | 73 | 3.2 | 9.7 | 0.00 | 0.00 | 0.00 | 79 | 1023.5 |
| 20260509184535 | 8 | 90 | 1.6 | 8.0 | 0.00 | 0.00 | 0.00 | 75 | 1023.4 |
| 20260509183027 | 9 | 78 | 4.8 | 16.1 | 0.00 | 0.00 | 0.00 | 72 | 1023.4 |
| 20260509181527 | 10 | 71 | 4.8 | 14.5 | 0.00 | 0.00 | 0.00 | 69 | 1023.2 |
| 20260509180026 | 10 | 75 | 4.8 | 9.7 | 0.00 | 0.00 | 0.00 | 67 | 1023.2 |
| 20260509174525 | 11 | 74 | 3.2 | 12.9 | 0.00 | 0.00 | 0.00 | 65 | 1023.2 |
| 20260509173052 | 11 | 65 | 6.4 | 16.1 | 0.00 | 0.00 | 0.00 | 61 | 1023.3 |
| 20260509171529 | 12 | 44 | 6.4 | 16.1 | 0.00 | 0.00 | 0.00 | 59 | 1023.3 |
| 20260509170022 | 12 | 61 | 8.0 | 20.9 | 0.00 | 0.00 | 0.00 | 53 | 1023.5 |
| 20260509164521 | 13 | 20 | 11.3 | 22.5 | 0.00 | 0.00 | 0.00 | 47 | 1023.5 |
| 20260509163023 | 13 | 78 | 9.7 | 20.9 | 0.00 | 0.00 | 0.00 | 49 | 1023.6 |
| 20260509161517 | 15 | 80 | 9.7 | 19.3 | 0.00 | 0.00 | 0.00 | 53 | 1023.7 |
| 20260509160021 | 15 | 39 | 11.3 | 22.5 | 0.00 | 0.00 | 0.00 | 55 | 1023.8 |
| 20260509154515 | 15 | 42 | 9.7 | 20.9 | 0.00 | 0.00 | 0.00 | 55 | 1023.9 |
| 20260509153022 | 15 | 86 | 11.3 | 22.5 | 0.00 | 0.00 | 0.00 | 53 | 1024.1 |
| 20260509151511 | 16 | 72 | 8.0 | 19.3 | 0.00 | 0.00 | 0.00 | 56 | 1024.1 |
| 20260509150011 | 16 | 35 | 11.3 | 22.5 | 0.00 | 0.00 | 0.00 | 57 | 1024.2 |
| 20260509144507 | 15 | 79 | 6.4 | 17.7 | 0.00 | 0.00 | 0.00 | 60 | 1024.4 |
| 20260509143011 | 15 | 313 | 1.6 | 6.4 | 0.00 | 0.00 | 0.00 | 70 | 1024.5 |
| 20260509141506 | 13 | 309 | 3.2 | 11.3 | 0.00 | 0.00 | 0.00 | 76 | 1024.5 |
| 20260509140006 | 13 | 246 | 3.2 | 11.3 | 0.00 | 0.00 | 0.00 | 82 | 1024.6 |
| 20260509134504 | 13 | 238 | 4.8 | 11.3 | 0.00 | 0.00 | 0.00 | 81 | 1024.6 |
| 20260509133003 | 13 | 287 | 3.2 | 14.5 | 0.00 | 0.00 | 0.00 | 85 | 1024.6 |
| 20260509131502 | 14 | 284 | 6.4 | 14.5 | 0.00 | 0.00 | 0.00 | 78 | 1024.7 |
| 20260509130003 | 15 | 232 | 4.8 | 11.3 | 0.00 | 0.00 | 0.00 | 74 | 1024.8 |
| 20260509124603 | 16 | 200 | 4.8 | 11.3 | 0.00 | 0.00 | 0.00 | 63 | 1024.9 |
| 20260509123123 | 16 | 122 | 8.0 | 20.9 | 0.00 | 0.00 | 0.00 | 63 | 1024.9 |
| 20260509121556 | 16 | 137 | 9.7 | 22.5 | 0.00 | 0.00 | 0.00 | 66 | 1025.1 |
| 20260509120055 | 15 | 44 | 6.4 | 17.7 | 0.00 | 0.00 | 0.00 | 63 | 1025.0 |
| 20260509114624 | 15 | 123 | 4.8 | 16.1 | 0.00 | 0.00 | 0.00 | 65 | 1025.1 |
| 20260509113105 | 15 | 60 | 9.7 | 19.3 | 0.00 | 0.00 | 0.00 | 64 | 1025.2 |
| 20260509111548 | 15 | 5 | 11.3 | 20.9 | 0.00 | 0.00 | 0.00 | 67 | 1025.3 |
| 20260509110056 | 15 | 38 | 4.8 | 25.7 | 0.00 | 0.00 | 0.00 | 66 | 1025.3 |
| 20260509104542 | 14 | 33 | 8.0 | 19.3 | 0.00 | 0.00 | 0.00 | 67 | 1025.4 |
| 20260509103041 | 14 | 105 | 6.4 | 20.9 | 0.00 | 0.00 | 0.00 | 68 | 1025.5 |
| 20260509101552 | 14 | 57 | 4.8 | 24.1 | 0.00 | 0.00 | 0.00 | 68 | 1025.5 |
| 20260509100036 | 14 | 47 | 11.3 | 25.7 | 0.00 | 0.00 | 0.00 | 68 | 1025.6 |
| 20260509094535 | 14 | 336 | 9.7 | 17.7 | 0.00 | 0.00 | 0.00 | 70 | 1025.5 |
| 20260509093031 | 13 | 5 | 11.3 | 20.9 | 0.00 | 0.00 | 0.00 | 71 | 1025.6 |
| 20260509091531 | 13 | 111 | 9.7 | 24.1 | 0.00 | 0.00 | 0.00 | 71 | 1025.7 |
| 20260509090027 | 13 | 86 | 11.3 | 24.1 | 0.00 | 0.00 | 0.00 | 72 | 1025.8 |
| 20260509084524 | 12 | 40 | 11.3 | 20.9 | 0.00 | 0.00 | 0.00 | 73 | 1025.7 |
| 20260509083022 | 12 | 67 | 9.7 | 22.5 | 0.00 | 0.00 | 0.00 | 75 | 1025.7 |
| 20260509081518 | 12 | 57 | 8.0 | 19.3 | 0.00 | 0.00 | 0.00 | 74 | 1025.7 |
| 20260509080010 | 12 | 347 | 9.7 | 20.9 | 0.00 | 0.00 | 0.00 | 73 | 1025.8 |
| 20260509074511 | 12 | 24 | 9.7 | 17.7 | 0.00 | 0.00 | 0.00 | 75 | 1025.8 |
| 20260509073009 | 12 | 54 | 8.0 | 19.3 | 0.00 | 0.00 | 0.00 | 73 | 1025.8 |
| 20260509071506 | 12 | 38 | 8.0 | 19.3 | 0.00 | 0.00 | 0.00 | 74 | 1025.8 |
| 20260509070004 | 12 | 37 | 8.0 | 17.7 | 0.00 | 0.00 | 0.00 | 76 | 1025.8 |
| 20260509064501 | 12 | 56 | 9.7 | 17.7 | 0.00 | 0.00 | 0.00 | 76 | 1025.9 |
| 20260509063058 | 11 | 68 | 6.4 | 19.3 | 0.00 | 0.00 | 0.00 | 78 | 1026.1 |
| 20260509061605 | 11 | 39 | 11.3 | 22.5 | 0.00 | 0.00 | 0.00 | 79 | 1026.3 |
| 20260509060051 | 11 | 52 | 9.7 | 19.3 | 0.00 | 0.00 | 0.00 | 80 | 1026.4 |
| 20260509054607 | 10 | 88 | 6.4 | 19.3 | 0.00 | 0.00 | 0.00 | 84 | 1026.5 |
| 20260509053042 | 9 | 70 | 11.3 | 20.9 | 0.00 | 0.00 | 0.00 | 85 | 1026.6 |
| 20260509051537 | 8 | 83 | 8.0 | 17.7 | 0.00 | 0.00 | 0.00 | 87 | 1026.6 |
| 20260509044527 | 5 | 57 | 6.4 | 9.7 | 0.00 | 0.00 | 0.00 | 94 | 1026.5 |
| 20260509043022 | 5 | 56 | 4.8 | 14.5 | 0.00 | 0.00 | 0.00 | 95 | 1026.5 |
| 20260509041522 | 4 | 81 | 4.8 | 14.5 | 0.00 | 0.00 | 0.00 | 96 | 1026.4 |
| 20260509033009 | 3 | 64 | 6.4 | 14.5 | 0.00 | 0.00 | 0.00 | 96 | 1026.7 |
| 20260509031521 | 3 | 59 | 4.8 | 16.1 | 0.00 | 0.00 | 0.00 | 96 | 1026.8 |
| 20260509030126 | 3 | 42 | 4.8 | 14.5 | 0.00 | 0.00 | 0.00 | 96 | 1026.8 |
| 20260509021544 | 3 | 71 | 4.8 | 9.7 | 0.00 | 0.00 | 0.00 | 96 | 1026.8 |
| 20260509020045 | 3 | 38 | 3.2 | 9.7 | 0.00 | 0.00 | 0.00 | 95 | 1026.8 |
| 20260509014543 | 3 | 60 | 4.8 | 11.3 | 0.00 | 0.00 | 0.00 | 95 | 1026.9 |
| 20260509013039 | 3 | 49 | 4.8 | 11.3 | 0.00 | 0.00 | 0.00 | 94 | 1026.8 |
| 20260509011539 | 4 | 49 | 4.8 | 14.5 | 0.00 | 0.00 | 0.00 | 94 | 1026.7 |
| 20260509010044 | 4 | 44 | 6.4 | 16.1 | 0.00 | 0.00 | 0.00 | 93 | 1026.8 |
| 20260509004535 | 4 | 40 | 6.4 | 12.9 | 0.00 | 0.00 | 0.00 | 93 | 1026.7 |
| 20260509003033 | 4 | 46 | 8.0 | 17.7 | 0.00 | 0.00 | 0.00 | 93 | 1026.9 |
| 20260509001532 | 4 | 47 | 6.4 | 16.1 | 0.00 | 0.00 | 0.00 | 92 | 1027.1 |
| 20260509000029 | 4 | 38 | 4.8 | 11.3 | 0.00 | 0.00 | 0.00 | 92 | 1027.1 |
| 20260508234527 | 4 | 37 | 6.4 | 14.5 | 0.00 | 0.00 | 0.00 | 91 | 1027.3 |
| 20260508233026 | 4 | 30 | 8.0 | 16.1 | 0.00 | 0.00 | 0.00 | 91 | 1027.3 |
| 20260508231522 | 4 | 53 | 6.4 | 14.5 | 0.00 | 0.00 | 0.00 | 90 | 1027.2 |
| 20260508230020 | 4 | 63 | 6.4 | 11.3 | 0.00 | 0.00 | 0.00 | 89 | 1027.3 |
| 20260508224520 | 4 | 52 | 4.8 | 12.9 | 0.00 | 0.00 | 0.00 | 88 | 1027.4 |
| 20260508223016 | 4 | 80 | 4.8 | 9.7 | 0.00 | 0.00 | 0.00 | 87 | 1027.5 |
| 20260508221514 | 4 | 69 | 4.8 | 11.3 | 0.00 | 0.00 | 0.00 | 85 | 1027.6 |
| 20260508220036 | 4 | 53 | 4.8 | 9.7 | 0.00 | 0.00 | 0.00 | 85 | 1027.7 |